Regional Weather Roundup
Issued by NWS Cleveland, OH

Home | Current Version | Previous Version | Graphics & Text | Print | Product List | Glossary On
Versions: 1 2 3 4 5 6 7 8 9 10 11 12 13 14 15 16 17 18 19 20 21 22 23 24 25 26 27 28 29 30 31 32 33 34 35 36 37 38 39 40 41 42 43 44 45 46 47 48 49 50
000
ASUS41 KCLE 271210
RWRCLE
OHIO REGIONAL WEATHER ROUNDUP
NATIONAL WEATHER SERVICE WILMINGTON, OH
800 AM EDT TUE JUN 27 2017

NOTE: "FAIR" INDICATES FEW OR NO CLOUDS BELOW 12,000 FEET WITH NO
SIGNIFICANT WEATHER AND/OR OBSTRUCTIONS TO VISIBILITY.

OHZ001>008-015>018-024>027-034-035-043-044-271300-
   NORTHWEST OHIO

CITY           SKY/WX    TMP DP  RH WIND       PRES   REMARKS
DEFIANCE       FAIR      54  49  83 VRB5      30.10R
FINDLAY        FAIR      57  49  74 W8        30.08R
TOLEDO EXPRESS FAIR      54  50  86 W7        30.08R
TOLEDO EXEC    FAIR      55  50  83 W7        30.09R
LIMA           CLOUDY    55  50  83 W9        30.11R
$$

OHZ009>014-019>023-028>033-038-089-271300-
   NORTHEAST OHIO

CITY           SKY/WX    TMP DP  RH WIND       PRES   REMARKS
CLE-HOPKINS    CLOUDY    55  50  83 SW9       30.06R
CLE-LAKEFRONT  PTSUNNY   61  50  67 W17       30.02R
CUY CO. ARPT   PTSUNNY   59  48  67 W9        30.03R
LORAIN-ELYRIA  CLOUDY    53  44  71 W12       30.06R
ASHTABULA      FAIR      55  52  89 W9        30.02R
AKRON-CANTON   FAIR      55  48  77 W13       30.06R
WOOSTER        FAIR      55  49  80 W9        30.08R
MANSFIELD      FAIR      55  49  80 W8G17     30.08R
YOUNGSTOWN     FAIR      55  50  83 W13       30.03R
$$

OHZ042-051>053-060>062-070>072-077>081-271300-
  SOUTHWEST OHIO

CITY           SKY/WX    TMP DP  RH WIND       PRES   REMARKS
CINC-COVINGTON FAIR      57  52  83 W6        30.14R
CINC-LUNKEN    FAIR      60  54  80 CALM      30.15R
HAMILTON       FAIR      57  54  89 W6        30.15R
DAYTON         FAIR      56  51  84 W6        30.14R
WRIGHT-PAT AFB MOSUNNY   56  54  94 CALM      30.13R
DAYTON GENERAL FAIR      56  50  80 W3        30.13R
WILMINGTON     FAIR      57  53  86 W5        30.13R
$$

OHZ036-037-039>041-045>050-054>059-063>069-073>076-082>088-271300-
  CENTRAL AND SOUTHEAST OHIO

CITY           SKY/WX    TMP DP  RH WIND       PRES   REMARKS
COLUMBUS       FAIR      57  52  83 W7        30.10R
OSU AIRPORT    FAIR      56  52  86 W8        30.11R
BOLTON FIELD   SUNNY     55  52  88 W5        30.12R
RICKENBACK AFB FAIR      55  52  91 W5        30.11R
NEWARK         FAIR      56  52  86 W3        30.10R
MARION         FAIR      56  48  74 NW9       30.10R
LANCASTER      FAIR      56  52  86 W5        30.11R
ZANESVILLE     FAIR      57  52  83 W5        30.10R
NEW PHILLY     FAIR      57  49  74 VRB6      30.09R
$$




USA.gov is the U.S. government's official web portal to all federal, state and local government web resources and services.